Location: Marcé
(47.5801°N, 0.3280°W)
Time: 18:47:21
(UTC+01:00)

Tiros 1 - Pass Details

Date: 01 December 2021
Orbit: 629 x 664 km, 48.4° (Epoch: 26 January)

Event Time Altitude Azimuth Distance (km) Brightness Sun altitude
Rises 00:50:15 0° 282° (WNW) 2,957 - -64.2°
Reaches altitude 10° 00:52:34 10° 282° (WNW) 2,052 - -64.2°
Maximum altitude 00:57:19 83° 194° (SSW) 663 - -64.2°
Drops below altitude 10° 01:02:06 10° 108° (ESE) 2,068 - -64.1°
Sets 01:04:27 0° 107° (ESE) 2,983 - -64.1°
